Nampa, ID

8:46 AM MDT on June 28, 2017 (GMT -0600)
Nampa

Weather History for KMAN - February, 2013

Change the Weather History Date:

Friday, February 8, 2013

  Actual Average (KBOI) Record (KBOI)
Temperature  
Mean Temperature 36 °F -  
Max Temperature 42 °F 41 °F 65 °F (2015)
Min Temperature 30 °F 24 °F -10 °F (1989)
Degree Days  
Heating Degree Days 29    
Moisture  
Dew Point 29 °F    
Average Humidity 80    
Maximum Humidity 100    
Minimum Humidity 53    
Precipitation  
Precipitation 0.05 in - - ()
Sea Level Pressure  
Sea Level Pressure 29.90 in    
Wind  
Wind Speed 12 mph (NW)    
Max Wind Speed 20 mph    
Max Gust Speed 29 mph    
Visibility 9 miles    
Events      
Averages and records for this station are not official NWS values.
T = Trace of Precipitation, MM = Missing Value Source: NWS Daily Summary

Daily Weather History Graph

Daily Weather History Graph

Search for Another Location

Airport or City:

Trip Planner

Search our weather history database for the weather conditions in past years. The results will help you decide how hot, cold, wet, or windy it might be!

Date:

Astronomy

Feb. 08, 2013 Rise Set
Actual Time 7:53 AM MST 6:07 PM MST
Civil Twilight 7:23 AM MST 6:37 PM MST
Nautical Twilight 6:49 AM MST 7:11 PM MST
Astronomical Twilight 6:16 AM MST 7:44 PM MST
Moon 6:27 AM MST (2/8) 4:45 PM MST (2/8)
Length of Visible Light 11h 13m
Length of Day
10h 13m
Waning Crescent, 3% of the Moon is Illuminated
Feb 8
Waning Crescent
Feb 10
New
Feb 17
First Quarter
Feb 25
Full
Mar 4
Last Quarter

Hourly Weather History & Observations

Time (MST) Temp. Windchill Dew Point Humidity Pressure Visibility Wind Dir Wind Speed Gust Speed Precip Events Conditions
12:15 AM 33.8 °F 27.7 °F 33.8 °F 100% 29.94 in 10.0 mi WNW 6.9 mph - N/A   Overcast
12:55 AM 33.8 °F 25.3 °F 33.8 °F 100% 29.95 in 10.0 mi WNW 11.5 mph - N/A   Overcast
1:15 AM 33.8 °F 25.8 °F 33.8 °F 100% 29.95 in 10.0 mi NW 10.4 mph - N/A   Overcast
1:55 AM 32.0 °F 23.6 °F 32.0 °F 100% 29.95 in 8.0 mi WNW 10.4 mph - N/A   Overcast
2:35 AM 32.0 °F 26.4 °F 32.0 °F 100% 29.95 in 10.0 mi West 5.8 mph - N/A   Overcast
2:55 AM 32.0 °F 27.5 °F 32.0 °F 100% 29.95 in 2.0 mi West 4.6 mph - N/A   Overcast
3:15 AM 32.0 °F 26.4 °F 32.0 °F 100% 29.95 in 1.2 mi WNW 5.8 mph - 0.01 in   Overcast
3:35 AM 32.0 °F 24.8 °F 32.0 °F 100% 29.95 in 0.8 mi WNW 8.1 mph - 0.02 in   Overcast
6:55 AM 32.0 °F 23.6 °F 32.0 °F 100% 29.93 in - NW 10.4 mph 23.0 mph N/A   Unknown
7:15 AM 32.0 °F 23.6 °F 32.0 °F 100% 29.93 in - NW 10.4 mph - N/A   Unknown
7:35 AM 30.2 °F 21.3 °F 30.2 °F 100% 29.93 in 1.8 mi WNW 10.4 mph - 0.01 in   Overcast
7:55 AM 30.2 °F 21.3 °F 30.2 °F 100% 29.93 in 2.5 mi WNW 10.4 mph - 0.01 in   Overcast
8:15 AM 30.2 °F 21.3 °F 30.2 °F 100% 29.93 in 3.0 mi WNW 10.4 mph - N/A   Overcast
8:35 AM 30.2 °F 21.9 °F 30.2 °F 100% 29.93 in 6.0 mi WNW 9.2 mph - N/A   Overcast
8:55 AM 32.0 °F 23.0 °F 32.0 °F 100% 29.93 in 10.0 mi NW 11.5 mph - 0.01 in   Overcast
9:15 AM 32.0 °F 23.6 °F 32.0 °F 100% 29.94 in 10.0 mi WNW 10.4 mph - N/A   Mostly Cloudy
9:35 AM 32.0 °F 22.5 °F 32.0 °F 100% 29.93 in 10.0 mi WNW 12.7 mph - N/A   Scattered Clouds
9:55 AM 32.0 °F 23.0 °F 32.0 °F 100% 29.94 in 10.0 mi NW 11.5 mph 19.6 mph N/A   Clear
10:15 AM 32.0 °F 22.1 °F 32.0 °F 100% 29.93 in 10.0 mi NW 13.8 mph - N/A   Clear
10:35 AM 32.0 °F 22.1 °F 32.0 °F 100% 29.93 in 10.0 mi WNW 13.8 mph - N/A   Clear
10:55 AM 33.8 °F 24.3 °F 32.0 °F 93% 29.93 in 10.0 mi NW 13.8 mph - N/A   Clear
11:15 AM 35.6 °F 27.1 °F 32.0 °F 87% 29.92 in 10.0 mi NW 12.7 mph - 0.01 in   Clear
11:35 AM 35.6 °F 25.5 °F 32.0 °F 87% 29.92 in 10.0 mi WNW 17.3 mph 21.9 mph 0.01 in   Clear
11:55 AM 37.4 °F 28.5 °F 32.0 °F 81% 29.91 in 10.0 mi NW 15.0 mph 20.7 mph 0.01 in   Clear
12:15 PM 37.4 °F 29.8 °F 32.0 °F 81% 29.90 in 10.0 mi NW 11.5 mph 20.7 mph N/A   Clear
12:55 PM 39.2 °F 29.6 °F 30.2 °F 70% 29.88 in 10.0 mi NW 19.6 mph 25.3 mph N/A   Clear
1:15 PM 41.0 °F 32.2 °F 30.2 °F 65% 29.87 in 10.0 mi NW 18.4 mph 24.2 mph N/A   Clear
1:35 PM 41.0 °F 31.9 °F 30.2 °F 65% 29.87 in 10.0 mi NW 19.6 mph 24.2 mph N/A   Clear
1:55 PM 41.0 °F 32.5 °F 28.4 °F 61% 29.86 in 10.0 mi NW 17.3 mph 25.3 mph N/A   Clear
2:15 PM 41.0 °F 31.9 °F 28.4 °F 61% 29.85 in 10.0 mi NW 19.6 mph 25.3 mph N/A   Clear
2:55 PM 42.8 °F 35.1 °F 28.4 °F 57% 29.84 in 10.0 mi NW 16.1 mph 24.2 mph N/A   Clear
3:15 PM 42.8 °F 34.8 °F 28.4 °F 57% 29.84 in 10.0 mi NW 17.3 mph 24.2 mph N/A   Clear
3:35 PM 42.8 °F 34.5 °F 26.6 °F 53% 29.84 in 10.0 mi NNW 18.4 mph 27.6 mph N/A   Clear
3:55 PM 42.8 °F 34.3 °F 26.6 °F 53% 29.85 in 10.0 mi NW 19.6 mph 28.8 mph N/A   Clear
4:15 PM 42.8 °F 34.5 °F 28.4 °F 57% 29.84 in 10.0 mi NW 18.4 mph 26.5 mph N/A   Clear
4:35 PM 41.0 °F 32.8 °F 26.6 °F 57% 29.84 in 10.0 mi NW 16.1 mph 21.9 mph N/A   Clear
4:55 PM 41.0 °F 32.5 °F 26.6 °F 57% 29.84 in 10.0 mi NW 17.3 mph 23.0 mph N/A   Clear
5:15 PM 41.0 °F 33.5 °F 26.6 °F 57% 29.85 in 10.0 mi NW 13.8 mph 21.9 mph N/A   Clear
5:35 PM 39.2 °F 30.8 °F 28.4 °F 65% 29.85 in 10.0 mi NW 15.0 mph 23.0 mph N/A   Clear
5:55 PM 39.2 °F 30.5 °F 26.6 °F 61% 29.85 in 10.0 mi NW 16.1 mph 23.0 mph N/A   Clear
6:15 PM 37.4 °F 28.9 °F 26.6 °F 65% 29.86 in 10.0 mi NW 13.8 mph 21.9 mph N/A   Clear
6:35 PM 37.4 °F 28.2 °F 26.6 °F 65% 29.86 in 10.0 mi NW 16.1 mph 21.9 mph N/A   Clear
6:55 PM 35.6 °F 27.1 °F 28.4 °F 75% 29.87 in 10.0 mi NW 12.7 mph 21.9 mph N/A   Clear
7:35 PM 35.6 °F 26.6 °F 26.6 °F 70% 29.87 in 10.0 mi NW 13.8 mph 19.6 mph N/A   Clear
7:55 PM 35.6 °F 27.1 °F 26.6 °F 70% 29.87 in 10.0 mi NW 12.7 mph 19.6 mph N/A   Clear
8:15 PM 35.6 °F 26.2 °F 26.6 °F 70% 29.87 in 10.0 mi NW 15.0 mph 21.9 mph N/A   Clear
8:35 PM 35.6 °F 26.6 °F 26.6 °F 70% 29.88 in 10.0 mi NW 13.8 mph 20.7 mph N/A   Clear
8:55 PM 35.6 °F 26.2 °F 26.6 °F 70% 29.88 in 10.0 mi NW 15.0 mph 20.7 mph N/A   Clear
9:15 PM 35.6 °F 25.2 °F 24.8 °F 65% 29.88 in 10.0 mi NW 18.4 mph 25.3 mph N/A   Clear
9:35 PM 35.6 °F 25.5 °F 24.8 °F 65% 29.88 in 10.0 mi WNW 17.3 mph 24.2 mph N/A   Clear
9:55 PM 33.8 °F 23.9 °F 26.6 °F 75% 29.88 in 10.0 mi WNW 15.0 mph 21.9 mph N/A   Clear
10:15 PM 32.0 °F 22.1 °F 26.6 °F 80% 29.88 in 10.0 mi WNW 13.8 mph 21.9 mph N/A   Clear
10:55 PM 32.0 °F 22.1 °F 26.6 °F 80% 29.89 in 10.0 mi WNW 13.8 mph 19.6 mph N/A   Clear
11:15 PM 32.0 °F 22.1 °F 28.4 °F 87% 29.89 in 10.0 mi NW 13.8 mph 18.4 mph N/A   Clear
11:35 PM 32.0 °F 22.5 °F 26.6 °F 80% 29.89 in 10.0 mi NW 12.7 mph 18.4 mph N/A   Clear
11:55 PM 32.0 °F 21.6 °F 26.6 °F 80% 29.89 in 10.0 mi NW 15.0 mph 19.6 mph N/A   Clear